#timestamp,LO_Frequency,Hit,StdDev 
1568134815.4,286046999.5,N
1568134835.3,286046999.2,N
1568134855.1,286046999.4,N
1568134875.8,286046998.2,N
1568134895.7,286046999.3,N
1568134915.5,286046999.2,N
1568134935.4,286046998.7,N
1568134955.2,286046998.9,N
1568134975.0,286047000.4,N
1568134975.9,286047000.4,N
1568134995.8,286047000.9,N
1568135015.6,286047000.3,N
1568135035.5,286047000.5,N
1568135055.3,286046999.8,N
1568135075.1,286047000.3,N
1568135095.9,286047000.3,N
1568135115.7,286046998.1,N
1568135135.5,286047002.8,N
1568135155.4,286047000.3,N
1568135175.2,286047002.3,N
1568135195.1,286047000.9,N
1568135196.0,286047000.9,N
1568135215.8,286047000.9,N
1568135235.6,286046999.7,N
1568135255.5,286047001.6,N
1568135275.3,286047001.9,N
1568135295.2,286047002.4,N
1568135315.9,286047002.4,N
1568135335.7,286047001.6,N
1568135355.6,286047002.5,N
1568135375.4,286047002.3,N
1568135395.2,286047002.2,N
1568135415.1,286047001.5,N
1568135416.0,286047001.5,N
1568135435.8,286047001.6,N
1568135455.7,286047002.0,N
1568135475.5,286047000.5,N
1568135495.3,286047000.2,N
1568135515.2,286047001.9,N
1568135535.0,286047000.2,N
1568135535.9,286047000.2,N
1568135555.8,286046999.9,N
1568135575.6,286047000.9,N
1568135595.4,286047000.6,N
1568135615.3,286047000.4,N
1568135635.1,286047000.0,N
1568135655.9,286047002.3,N
1568135675.7,286046999.7,N
1568135695.5,286047000.1,N
1568135715.4,286047000.0,N
1568135735.2,286047001.2,N
1568135755.0,286046998.1,N
1568135755.9,286046998.1,N
1568135775.8,286046999.9,N
1568135795.6,286047001.9,N
1568135815.5,286047002.5,N
1568135835.3,286046999.9,N
1568135855.1,286046999.7,N
1568135875.9,286047002.3,N
1568135895.7,286047002.4,N
1568135915.6,286047002.6,N
1568135935.4,286047001.5,N
1568135955.2,286047001.5,N
1568135975.4,286047002.7,N
1568135995.3,286047000.1,N
1568136015.1,286047002.8,N
1568136035.9,286047000.0,N
1568136055.7,286047002.6,N
1568136075.5,286047002.6,N
1568136095.4,286047002.7,N
1568136115.2,286047002.0,N
1568136135.0,286047002.4,N
1568136135.9,286047002.4,N
1568136155.8,286046999.7,N
1568136175.6,286047002.7,N
1568136195.5,286047000.1,N
1568136215.3,286047002.4,N
1568136235.1,286047000.0,N
1568136255.9,286047002.3,N
1568136275.7,286047001.6,N
1568136295.6,286047004.0,N
1568136315.4,286047003.8,N
1568136335.2,286047002.2,N
1568136355.1,286047001.6,N
1568136356.0,286047001.6,N
1568136375.8,286047001.7,N
1568136395.7,286047004.2,Y
1568136415.5,286046999.8,P
1568136435.3,286047002.0,N
1568136455.2,286047004.4,P
1568136475.0,286047001.4,N
1568136475.9,286047001.4,N
1568136495.7,286047001.8,N
1568136515.6,286047001.7,N
1568136535.4,286047001.3,N
1568136555.3,286047001.5,N
1568136575.1,286047004.0,Y
1568136595.8,286047002.4,P
1568136615.7,286047000.1,N
1568136635.5,286047000.2,N
1568136655.4,286047001.2,N
1568136675.2,286047000.6,N
1568136695.0,286047000.9,N
1568136695.9,286047000.9,N
1568136715.8,286046999.8,N
1568136735.6,286046999.7,N
1568136755.4,286047000.2,N
1568136775.3,286047002.1,N
1568136795.1,286047002.6,Y
1568136815.9,286047000.5,P
1568136835.7,286047000.9,P
1568136855.5,286047000.5,N
1568136875.4,286046999.9,N
1568136895.2,286047000.0,N
1568136915.1,286047000.3,N
1568136916.0,286047000.3,N
1568136935.8,286046999.3,N
1568136955.6,286046998.9,N
1568136975.5,286046999.3,N
1568136995.3,286046999.2,N
1568137015.2,286046999.6,N
1568137035.9,286046998.8,N
1568137055.7,286046998.4,N
1568137075.6,286046996.8,Y
1568137095.4,286046996.8,P
1568137115.3,286046996.8,N
1568137135.1,286046999.5,N
1568137155.8,286046999.3,N
1568137175.7,286046999.2,N
1568137195.5,286046996.6,N
1568137215.4,286046996.5,N
1568137235.2,286046997.0,N
1568137255.0,286046999.3,N
1568137255.9,286046999.3,N
1568137275.8,286046996.5,N
1568137295.6,286046996.9,N
1568137315.5,286046996.8,N
1568137335.3,286046997.1,N
1568137355.1,286046999.2,N
1568137375.9,286046999.5,N
1568137395.7,286046996.6,N
1568137415.6,286046999.5,N
1568137435.4,286046997.2,N
1568137455.2,286046997.4,N
1568137475.1,286046996.8,N
1568137476.0,286046996.8,N
1568137495.8,286046996.9,N
1568137515.7,286046997.3,N
1568137535.5,286046997.7,N
1568137555.3,286046996.6,N
1568137575.2,286046996.7,N
1568137595.0,286046997.1,N
1568137595.9,286046997.1,N
1568137615.8,286046997.7,N
1568137635.6,286046999.5,N
1568137655.4,286046996.9,N
1568137675.3,286046999.5,N
1568137695.1,286046999.5,N
1568137715.8,286046999.2,N
1568137735.7,286046996.5,Y
1568137755.5,286046998.6,P
1568137775.4,286047001.1,N
1568137795.2,286047001.1,N
1568137815.0,286046998.3,N
1568137815.9,286046998.3,N
1568137835.8,286046998.6,N
1568137855.6,286046998.2,N
1568137875.5,286047000.8,N
1568137895.3,286046998.4,N
1568137915.1,286046998.2,N
1568137935.9,286046998.5,N
1568137955.7,286046999.1,N
1568137975.6,286046996.6,Y
1568137995.4,286047000.8,P
1568138015.2,286047000.6,N
1568138035.1,286047000.1,N
1568138036.0,286047000.1,N
1568138055.8,286047000.5,N
1568138075.6,286047000.0,N
1568138095.5,286047001.0,N
1568138115.3,286047000.6,N
1568138135.2,286047000.9,N
1568138155.9,286047000.3,N
1568138175.7,286047000.2,N
1568138195.6,286046999.9,N
1568138215.4,286047000.7,N
1568138235.3,286046998.5,Y
1568138255.1,286046999.3,P
1568138256.0,286046999.3,N
1568138275.8,286046999.4,N
1568138295.7,286046998.4,Y
1568138315.5,286046999.3,P
1568138335.3,286046998.2,P
1568138355.2,286046998.4,N
1568138375.0,286047001.0,N
1568138375.9,286047001.0,N
1568138395.8,286047001.0,N
